AV751 Weather Reports


Display with metric or nautical units.
time (UTC)temp
F
wind
direction
speed
MPH
gust
MPH
rain 1hr
in
rain 24hr
in
rain mn
in
humidity
%
barometer
mb
20260508060005 52 0 0.0 0.0 0.00 0.00 0.00 83 997.4
20260508055504 52 270 0.0 1.0 0.00 0.00 0.00 83 997.3
20260508055004 51 270 0.0 1.0 0.00 0.00 0.00 83 997.2
20260508054716 51 0 0.0 0.0 0.00 0.00 0.00 83 997.3
20260508054004 51 0 0.0 0.0 0.00 0.00 0.00 82 997.3
20260508053717 51 0 0.0 0.0 0.00 0.00 0.00 82 997.3
20260508053004 51 135 0.0 1.0 0.00 0.00 0.00 82 997.3
20260508052504 51 135 0.0 1.0 0.00 0.00 0.00 82 997.3
20260508052004 51 135 0.0 1.0 0.00 0.00 0.00 82 997.3
20260508051504 51 0 0.0 0.0 0.00 0.00 0.00 82 997.2
20260508051004 51 180 0.0 1.0 0.00 0.00 0.00 82 997.3
20260508050504 51 135 0.0 1.0 0.00 0.00 0.00 82 997.0
20260508050218 51 134 0.0 1.0 0.00 0.00 0.00 83 997.1
20260508045504 51 135 0.0 2.0 0.00 0.00 0.00 83 996.9
20260508045004 51 135 0.0 2.0 0.00 0.00 0.00 83 997.2
20260508044504 51 135 0.0 2.0 0.00 0.00 0.00 84 997.1
20260508044004 51 138 0.0 3.0 0.00 0.00 0.00 84 997.0
20260508043504 50 141 1.0 3.0 0.00 0.00 0.00 83 997.0
20260508043004 50 180 0.0 1.0 0.00 0.00 0.00 83 996.9
20260508042718 50 0 0.0 0.0 0.00 0.00 0.00 83 997.0
20260508042004 50 0 0.0 0.0 0.00 0.00 0.00 83 997.1
20260508041714 50 0 0.0 0.0 0.00 0.00 0.00 83 997.0
20260508041004 50 0 0.0 0.0 0.00 0.00 0.00 83 996.7
20260508040504 50 0 0.0 0.0 0.00 0.00 0.00 83 996.6
20260508040005 50 0 0.0 0.0 0.00 0.00 0.00 83 997.0
20260508035716 50 0 0.0 0.0 0.00 0.00 0.00 83 996.7
20260508035004 50 0 0.0 0.0 0.00 0.00 0.00 82 996.9
20260508034504 50 0 0.0 0.0 0.00 0.00 0.00 82 996.4
20260508034004 50 0 0.0 0.0 0.00 0.00 0.00 82 996.6
20260508033504 50 0 0.0 0.0 0.00 0.00 0.00 82 996.5
20260508033004 50 0 0.0 0.0 0.00 0.00 0.00 82 996.6
20260508032504 50 0 0.0 0.0 0.00 0.00 0.00 81 996.6
20260508032004 50 0 0.0 0.0 0.00 0.00 0.00 81 996.7
20260508031504 50 0 0.0 0.0 0.00 0.00 0.00 81 996.7
20260508031004 51 0 0.0 0.0 0.00 0.00 0.00 81 996.8
20260508030504 51 0 0.0 0.0 0.00 0.00 0.00 80 996.7
20260508030004 51 0 0.0 0.0 0.00 0.00 0.00 80 996.8
20260508025504 51 0 0.0 0.0 0.00 0.00 0.00 80 996.8
20260508025004 51 0 0.0 0.0 0.00 0.00 0.00 80 996.9
20260508024717 51 0 0.0 0.0 0.00 0.00 0.00 79 996.9
20260508024004 51 0 0.0 0.0 0.00 0.00 0.00 78 996.9
20260508023504 51 0 0.0 0.0 0.00 0.00 0.00 78 996.8
20260508023004 51 0 0.0 0.0 0.00 0.00 0.00 77 996.8
20260508022504 51 0 0.0 0.0 0.00 0.00 0.00 77 996.7
20260508022004 52 0 0.0 0.0 0.00 0.00 0.00 77 996.7
20260508021504 52 180 0.0 1.0 0.00 0.00 0.00 77 996.7
20260508021004 52 180 0.0 1.0 0.00 0.00 0.00 76 996.4
20260508020716 52 175 0.0 1.0 0.00 0.00 0.00 76 996.8
20260508020004 52 144 0.0 3.0 0.00 0.00 0.00 76 996.6
20260508015504 52 138 1.0 3.0 0.00 0.00 0.00 77 996.6
20260508015004 52 148 1.0 2.0 0.00 0.00 0.00 76 996.6
20260508014504 52 151 1.0 2.0 0.00 0.00 0.00 76 996.5
20260508014216 52 147 0.0 2.0 0.00 0.00 0.00 76 996.8
20260508013504 52 143 1.0 2.0 0.00 0.00 0.00 76 996.5
20260508013004 52 146 1.0 3.0 0.00 0.00 0.00 76 996.7
20260508012504 52 143 2.0 3.0 0.00 0.00 0.00 76 996.7
20260508012004 52 155 1.0 3.0 0.00 0.00 0.00 75 996.6
20260508011504 52 161 0.0 3.0 0.00 0.00 0.00 75 996.5
20260508011004 52 141 1.0 2.0 0.00 0.00 0.00 75 996.6
20260508010504 53 139 0.0 2.0 0.00 0.00 0.00 75 996.5
20260508010004 53 141 1.0 3.0 0.00 0.00 0.00 74 996.5
20260508005504 53 147 0.0 4.0 0.00 0.00 0.00 74 996.5
20260508005004 53 147 2.0 4.0 0.00 0.00 0.00 74 996.5
20260508004504 53 140 1.0 4.0 0.00 0.00 0.00 74 996.6
20260508004004 53 139 0.0 4.0 0.00 0.00 0.00 74 996.6
20260508003504 53 131 2.0 4.0 0.00 0.00 0.00 73 996.6
20260508003005 53 124 0.0 3.0 0.00 0.00 0.00 73 996.5
20260508002504 53 136 0.0 2.0 0.00 0.00 0.00 73 996.7
20260508002004 53 145 1.0 3.0 0.00 0.00 0.00 73 996.7
20260508001504 53 143 0.0 4.0 0.00 0.00 0.00 73 996.7
20260508001215 53 141 1.0 4.0 0.00 0.00 0.00 73 996.7
20260508000504 53 132 2.0 4.0 0.00 0.00 0.00 73 996.5
20260508000216 53 129 2.0 3.0 0.00 0.00 0.00 73 996.9
20260507235504 53 138 2.0 4.0 0.00 0.00 0.00 73 997.0
20260507235004 53 137 2.0 4.0 0.00 0.00 0.00 73 996.7
20260507234715 53 135 2.0 4.0 0.00 0.00 0.00 73 996.8
20260507234004 53 142 1.0 4.0 0.00 0.00 0.00 73 997.0
20260507233504 53 140 2.0 4.0 0.00 0.00 0.00 73 996.9
20260507233004 53 144 2.0 4.0 0.00 0.00 0.00 73 997.0
20260507232504 53 154 2.0 3.0 0.00 0.00 0.00 73 996.9
20260507232004 53 142 2.0 4.0 0.00 0.00 0.00 73 996.7
20260507231504 53 137 1.0 4.0 0.00 0.00 0.00 73 996.7
20260507231004 53 136 0.0 4.0 0.00 0.00 0.00 73 996.6
20260507230718 53 134 2.0 4.0 0.00 0.00 0.00 73 996.6
20260507230006 53 143 2.0 4.0 0.00 0.00 0.00 73 996.7
20260507225504 53 133 2.0 4.0 0.00 0.00 0.00 73 996.5
20260507225004 54 133 2.0 4.0 0.00 0.00 0.00 73 996.7
20260507224504 54 141 2.0 3.0 0.00 0.00 0.00 73 996.8
20260507224004 54 132 2.0 3.0 0.00 0.00 0.00 73 996.8
20260507223504 54 136 1.0 3.0 0.00 0.00 0.00 72 996.9
20260507223214 54 131 2.0 3.0 0.00 0.00 0.00 72 996.8
20260507222717 54 139 1.0 3.0 0.00 0.00 0.00 72 996.8
20260507222004 54 139 1.0 2.0 0.00 0.00 0.00 71 996.8
20260507221504 54 148 1.0 4.0 0.00 0.00 0.00 70 996.9
20260507221004 54 139 2.0 4.0 0.00 0.00 0.00 70 996.8
20260507220714 54 138 4.0 4.0 0.00 0.00 0.00 70 996.8
20260507220004 54 140 4.0 4.0 0.00 0.00 0.00 70 996.6
20260507215504 54 139 2.0 6.0 0.00 0.00 0.00 70 996.5
20260507215004 54 142 2.0 6.0 0.00 0.00 0.00 65 996.7
20260507214504 54 141 4.0 5.0 0.00 0.00 0.00 65 996.5
20260507214004 55 133 3.0 8.0 0.00 0.00 0.00 65 996.6
20260507213504 55 138 2.0 8.0 0.00 0.00 0.00 64 996.5
20260507213004 55 144 3.0 6.0 0.00 0.00 0.00 64 996.5
20260507212504 55 143 4.0 6.0 0.00 0.00 0.00 64 996.5
20260507212004 55 154 4.0 4.0 0.00 0.00 0.00 63 996.6
20260507211504 55 156 2.0 4.0 0.00 0.00 0.00 63 996.6
20260507211004 55 143 3.0 4.0 0.00 0.00 0.00 63 996.4
20260507210504 55 142 2.0 5.0 0.00 0.00 0.00 62 996.4
20260507210005 55 139 1.0 5.0 0.00 0.00 0.00 62 996.5
20260507205715 55 141 3.0 5.0 0.00 0.00 0.00 62 996.3
20260507205004 56 142 3.0 5.0 0.00 0.00 0.00 61 996.4
20260507204716 56 139 4.0 5.0 0.00 0.00 0.00 61 996.1
20260507204004 56 141 2.0 6.0 0.00 0.00 0.00 61 996.1
20260507203504 56 137 4.0 6.0 0.00 0.00 0.00 60 996.1
20260507203004 56 126 2.0 5.0 0.00 0.00 0.00 60 996.0
20260507202504 56 123 1.0 4.0 0.00 0.00 0.00 60 996.0
20260507202004 56 144 2.0 4.0 0.00 0.00 0.00 59 996.0
20260507201504 56 153 2.0 4.0 0.00 0.00 0.00 59 995.7
20260507201004 56 147 3.0 5.0 0.00 0.00 0.00 58 995.9
20260507200504 56 117 3.0 6.0 0.00 0.00 0.00 58 995.7
20260507200005 56 121 2.0 7.0 0.00 0.00 0.00 58 995.8
20260507195716 56 135 3.0 7.0 0.00 0.00 0.00 58 995.6
20260507195004 57 125 2.0 4.0 0.00 0.00 0.00 57 995.7
20260507194504 57 133 1.0 6.0 0.00 0.00 0.00 57 995.5
20260507194004 57 140 2.0 6.0 0.00 0.00 0.00 56 995.6
20260507193718 57 149 4.0 6.0 0.00 0.00 0.00 56 995.5
20260507193004 57 146 2.0 4.0 0.00 0.00 0.00 56 995.4
20260507192504 57 149 2.0 7.0 0.00 0.00 0.00 55 995.5
20260507192005 57 152 1.0 7.0 0.00 0.00 0.00 54 995.4
20260507191504 57 141 3.0 5.0 0.00 0.00 0.00 54 995.3
20260507191004 58 141 2.0 8.0 0.00 0.00 0.00 53 995.4
20260507190504 58 129 4.0 8.0 0.00 0.00 0.00 53 995.3
20260507190005 58 127 2.0 6.0 0.00 0.00 0.00 52 995.4
20260507185504 58 126 2.0 7.0 0.00 0.00 0.00 52 995.4
20260507185004 58 110 3.0 7.0 0.00 0.00 0.00 51 995.4
20260507154504 64 104 2.0 7.0 0.00 0.00 0.00 41 994.4
20260507154004 64 81 4.0 6.0 0.00 0.00 0.00 41 994.7
20260507153504 64 85 2.0 6.0 0.00 0.00 0.00 41 994.4
20260507153004 62 103 3.0 5.0 0.00 0.00 0.00 44 994.7
20260507152504 62 112 2.0 5.0 0.00 0.00 0.00 45 994.8
20260507152004 62 122 3.0 8.0 0.00 0.00 0.00 44 995.1
20260507151504 62 115 3.0 8.0 0.00 0.00 0.00 42 995.1
20260507151004 63 100 2.0 5.0 0.00 0.00 0.00 42 995.1
20260507150504 62 124 3.0 7.0 0.00 0.00 0.00 42 995.4
20260507150005 61 142 3.0 7.0 0.00 0.00 0.00 42 995.3
20260507145504 60 160 2.0 4.0 0.00 0.00 0.00 43 995.4
20260507145004 60 170 2.0 4.0 0.00 0.00 0.00 43 995.5
20260507144504 60 161 2.0 4.0 0.00 0.00 0.00 43 995.5
20260507144218 60 157 2.0 4.0 0.00 0.00 0.00 43 995.4
20260507143504 60 142 1.0 4.0 0.00 0.00 0.00 44 995.3
20260507143004 60 163 2.0 4.0 0.00 0.00 0.00 43 995.5
20260507142504 60 166 1.0 5.0 0.00 0.00 0.00 44 995.4
20260507142004 60 147 0.0 5.0 0.00 0.00 0.00 43 995.4
20260507141504 60 134 2.0 4.0 0.00 0.00 0.00 44 995.7
20260507141004 60 135 2.0 4.0 0.00 0.00 0.00 43 995.6
20260507140504 60 126 2.0 5.0 0.00 0.00 0.00 44 995.5
20260507140005 60 143 2.0 5.0 0.00 0.00 0.00 44 995.6
20260507135504 60 144 2.0 4.0 0.00 0.00 0.00 44 995.5
20260507135004 60 136 3.0 6.0 0.00 0.00 0.00 43 995.7
20260507134504 60 136 2.0 6.0 0.00 0.00 0.00 43 995.7
20260507134004 60 136 4.0 7.0 0.00 0.00 0.00 43 995.7
20260507133504 60 135 1.0 7.0 0.00 0.00 0.00 43 995.5
20260507133004 60 142 3.0 6.0 0.00 0.00 0.00 43 995.7
20260507132504 60 144 4.0 8.0 0.00 0.00 0.00 43 995.8
20260507132004 60 141 3.0 8.0 0.00 0.00 0.00 43 995.7
20260507131504 61 137 6.0 8.0 0.00 0.00 0.00 42 995.6
20260507131004 62 140 3.0 8.0 0.00 0.00 0.00 43 995.7
20260507130504 61 146 3.0 7.0 0.00 0.00 0.00 43 995.6
20260507130217 61 142 4.0 8.0 0.00 0.00 0.00 43 995.6
20260507125504 62 126 3.0 8.0 0.00 0.00 0.00 41 995.6
20260507125004 63 128 2.0 8.0 0.00 0.00 0.00 42 995.8
20260507124504 62 133 4.0 8.0 0.00 0.00 0.00 43 995.6
20260507124004 62 136 2.0 6.0 0.00 0.00 0.00 44 995.8
20260507123717 61 137 3.0 6.0 0.00 0.00 0.00 44 995.6
20260507123004 60 134 2.0 7.0 0.00 0.00 0.00 45 995.9
20260507122504 60 137 1.0 8.0 0.00 0.00 0.00 44 995.9
20260507122004 60 122 2.0 8.0 0.00 0.00 0.00 45 995.9
20260507121504 60 142 2.0 8.0 0.00 0.00 0.00 47 996.0
20260507121004 60 150 2.0 8.0 0.00 0.00 0.00 47 995.9
20260507120504 60 137 3.0 8.0 0.00 0.00 0.00 47 995.9
20260507120005 60 130 2.0 8.0 0.00 0.00 0.00 45 996.0
20260507115716 60 123 3.0 8.0 0.00 0.00 0.00 44 995.9
20260507115004 61 110 2.0 8.0 0.00 0.00 0.00 43 996.2
20260507114504 61 107 3.0 8.0 0.00 0.00 0.00 43 996.1
20260507114004 61 127 1.0 7.0 0.00 0.00 0.00 45 996.1
20260507113504 61 143 5.0 7.0 0.00 0.00 0.00 48 996.4
20260507113004 61 147 3.0 7.0 0.00 0.00 0.00 50 996.3
20260507112504 60 145 3.0 7.0 0.00 0.00 0.00 48 996.4
20260507112004 60 144 3.0 8.0 0.00 0.00 0.00 51 996.3
20260507111506 59 127 2.0 8.0 0.00 0.00 0.00 50 996.4
20260507111004 60 98 2.0 7.0 0.00 0.00 0.00 52 996.6
20260507110504 59 123 3.0 7.0 0.00 0.00 0.00 52 996.2
20260507110005 59 118 3.0 8.0 0.00 0.00 0.00 52 996.3
20260507105504 58 112 4.0 8.0 0.00 0.00 0.00 52 996.5
20260507105004 58 131 2.0 8.0 0.00 0.00 0.00 51 996.5
20260507104504 59 136 5.0 8.0 0.00 0.00 0.00 51 996.5
20260507104004 60 142 2.0 6.0 0.00 0.00 0.00 52 996.6
20260507103504 60 141 3.0 6.0 0.00 0.00 0.00 52 996.6
20260507103004 60 107 4.0 6.0 0.00 0.00 0.00 53 996.6
20260507102504 59 118 3.0 6.0 0.00 0.00 0.00 54 996.8
20260507102218 59 125 2.0 6.0 0.00 0.00 0.00 55 996.8
20260507101504 58 145 3.0 6.0 0.00 0.00 0.00 55 996.8
20260507101004 57 146 4.0 6.0 0.00 0.00 0.00 56 996.7
20260507100504 57 127 2.0 8.0 0.00 0.00 0.00 57 996.7
20260507100005 57 108 4.0 8.0 0.00 0.00 0.00 58 996.9
20260507095717 57 90 3.0 4.0 0.00 0.00 0.00 59 996.8
20260507095004 57 142 1.0 6.0 0.00 0.00 0.00 61 996.8
20260507094504 56 137 4.0 6.0 0.00 0.00 0.00 61 996.8
20260507094005 56 139 3.0 6.0 0.00 0.00 0.00 60 996.9
20260507093504 56 142 3.0 8.0 0.00 0.00 0.00 60 997.0
20260507093004 56 147 2.0 8.0 0.00 0.00 0.00 61 996.9
20260507092504 55 127 4.0 7.0 0.00 0.00 0.00 62 997.0
20260507092004 55 117 4.0 7.0 0.00 0.00 0.00 63 997.0
20260507091504 55 132 1.0 5.0 0.00 0.00 0.00 63 996.9
20260507091004 54 140 4.0 5.0 0.00 0.00 0.00 63 997.0
20260507090717 55 142 2.0 5.0 0.00 0.00 0.00 64 997.0
20260507090005 54 133 1.0 6.0 0.00 0.00 0.00 69 997.2
20260507085718 54 137 4.0 6.0 0.00 0.00 0.00 68 997.2
20260507085004 53 137 4.0 8.0 0.00 0.00 0.00 67 997.2
20260507084504 54 133 2.0 4.0 0.00 0.00 0.00 70 997.1
20260507084004 53 128 4.0 6.0 0.00 0.00 0.00 70 997.2
20260507083504 53 134 4.0 8.0 0.00 0.00 0.00 71 997.3
20260507083005 52 145 4.0 8.0 0.00 0.00 0.00 71 997.2
20260507082504 52 144 5.0 8.0 0.00 0.00 0.00 71 997.2
20260507082004 52 143 3.0 8.0 0.00 0.00 0.00 71 997.2
20260507081504 52 141 4.0 8.0 0.00 0.00 0.00 71 997.2
20260507081004 51 141 2.0 8.0 0.00 0.00 0.00 71 997.3
20260507080504 52 139 2.0 4.0 0.00 0.00 0.00 72 997.3
20260507080005 51 126 3.0 4.0 0.00 0.00 0.00 72 997.2
20260507075504 51 142 3.0 5.0 0.00 0.00 0.00 73 997.4
20260507075004 51 145 3.0 5.0 0.00 0.00 0.00 73 997.3
20260507074504 51 134 3.0 5.0 0.00 0.00 0.00 74 997.4
20260507074004 50 135 2.0 4.0 0.00 0.00 0.00 75 997.3
20260507073504 50 133 0.0 4.0 0.00 0.00 0.00 75 997.4
20260507073213 49 133 2.0 4.0 0.00 0.00 0.00 75 997.2
20260507072504 50 145 2.0 4.0 0.00 0.00 0.00 77 997.3
20260507072004 49 163 1.0 3.0 0.00 0.00 0.00 77 997.3
20260507071717 49 174 2.0 3.0 0.00 0.00 0.00 77 997.4
20260507071004 48 149 1.0 3.0 0.00 0.00 0.00 77 997.3
20260507070504 48 139 2.0 3.0 0.00 0.00 0.00 77 997.3
20260507070009 48 135 2.0 2.0 0.00 0.00 0.00 80 997.3
20260507065504 48 135 2.0 2.0 0.00 0.00 0.00 81 997.3
20260507065004 48 143 1.0 2.0 0.00 0.00 0.00 83 997.3
20260507064504 48 141 0.0 2.0 0.00 0.00 0.00 87 997.1
20260507064004 48 135 1.0 2.0 0.00 0.00 0.00 91 997.3
20260507063504 48 135 0.0 2.0 0.00 0.00 0.00 93 997.2
20260507063004 47 135 0.0 2.0 0.00 0.00 0.00 94 997.3
20260507062504 45 135 1.0 2.0 0.00 0.00 0.00 98 997.1
20260507062004 44 135 0.0 2.0 0.00 0.00 0.00 97 997.3
20260507061504 44 135 0.0 1.0 0.00 0.00 0.00 97 997.4
20260507061216 44 135 0.0 2.0 0.00 0.00 0.00 97 997.3
20260507060504 43 144 1.0 2.0 0.00 0.00 0.00 96 997.2
20260507060217 43 157 0.0 1.0 0.00 0.00 0.00 96 997.2